Time_in_sec,gx,gy,gz
1314365325.46548915,0.14452303,-0.00636992,-0.98948093
1314365325.51306725,0.14467383,-0.00650645,-0.98945801
1314365325.56546712,0.14467246,-0.00633861,-0.98945930
1314365325.61743903,0.14452761,-0.00656408,-0.98947900
1314365325.66548872,0.14481161,-0.00665936,-0.98943683
1314365325.71346831,0.14472977,-0.00675247,-0.98944818
1314365325.76548910,0.14465381,-0.00684405,-0.98945866
1314365325.81661177,0.14462816,-0.00703807,-0.98946105
1314365325.86855960,0.14452805,-0.00714739,-0.98947489
1314365325.91662288,0.14455893,-0.00747694,-0.98946794
1314365325.96504831,0.14440870,-0.00746005,-0.98949001
1314365326.01346445,0.14460907,-0.00732083,-0.98946178
1314365326.06560755,0.14467546,-0.00728092,-0.98945237
1314365326.11347890,0.14473183,-0.00733007,-0.98944377
1314365326.16448474,0.14480027,-0.00730511,-0.98943394
1314365326.21301413,0.14466203,-0.00713490,-0.98945540
1314365326.26547980,0.14474493,-0.00704145,-0.98944395
1314365326.31300950,0.14478787,-0.00687319,-0.98943885
1314365326.36550093,0.14512784,-0.00685376,-0.98938917
1314365326.41290116,0.14510829,-0.00683530,-0.98939217
1314365326.46559739,0.14498587,-0.00695812,-0.98940926
1314365326.51346898,0.14486392,-0.00707847,-0.98942627
1314365326.56487608,0.14504243,-0.00727775,-0.98939867
1314365326.61362696,0.14494396,-0.00712111,-0.98941424
1314365326.66546583,0.14509808,-0.00729785,-0.98939036
1314365326.71760416,0.14525722,-0.00726920,-0.98936722
1314365326.76466632,0.14543393,-0.00750437,-0.98933950
1314365326.81287646,0.14563915,-0.00742085,-0.98930995
1314365326.86459064,0.14562194,-0.00751158,-0.98931179
1314365326.91347075,0.14552967,-0.00752876,-0.98932524
1314365326.96460772,0.14557559,-0.00775164,-0.98931676
1314365327.01780033,0.14552880,-0.00747898,-0.98932575
1314365327.06550026,0.14558617,-0.00732159,-0.98931848
1314365327.11349034,0.14541997,-0.00763694,-0.98934054
1314365327.16550899,0.14522598,-0.00753612,-0.98936981
1314365327.21346045,0.14539855,-0.00752965,-0.98934451
1314365327.26460290,0.14515906,-0.00772023,-0.98937821
1314365327.31351161,0.14527780,-0.00785597,-0.98935971
1314365327.36453009,0.14513506,-0.00822728,-0.98937765
1314365327.41362238,0.14517173,-0.00813408,-0.98937304
1314365327.46548867,0.14515561,-0.00816290,-0.98937516
1314365327.51746464,0.14503213,-0.00838499,-0.98939142
1314365327.56471205,0.14492886,-0.00811466,-0.98940880
1314365327.61350656,0.14475384,-0.00827610,-0.98943309
1314365327.66467166,0.14453116,-0.00821123,-0.98946618
1314365327.71346855,0.14442249,-0.00817669,-0.98948233
1314365327.76455021,0.14425607,-0.00800622,-0.98950800
1314365327.81361890,0.14434907,-0.00760992,-0.98949757
1314365327.86557341,0.14434238,-0.00770957,-0.98949777
1314365327.91361642,0.14429725,-0.00742161,-0.98950656
1314365327.96497774,0.14433385,-0.00744732,-0.98950102
1314365328.01346922,0.14436495,-0.00729004,-0.98949766
1314365328.06484246,0.14417811,-0.00728361,-0.98952495
1314365328.11360335,0.14406596,-0.00753909,-0.98953937
1314365328.16560960,0.14398641,-0.00726294,-0.98955301
1314365328.21362305,0.14413908,-0.00728087,-0.98953065
1314365328.26548982,0.14397045,-0.00713153,-0.98955629
1314365328.31383681,0.14403103,-0.00725125,-0.98954660
1314365328.36459088,0.14409553,-0.00721973,-0.98953744
1314365328.41283917,0.14437619,-0.00704920,-0.98949776
1314365328.46560764,0.14428034,-0.00729221,-0.98950998
1314365328.51357436,0.14422866,-0.00723637,-0.98951793
1314365328.56482530,0.14424960,-0.00686713,-0.98951751
1314365328.61360192,0.14406305,-0.00700014,-0.98954375
1314365328.66547561,0.14418338,-0.00704987,-0.98952587
1314365328.71749568,0.14384467,-0.00702803,-0.98957532
1314365328.76461697,0.14386337,-0.00706101,-0.98957237
1314365328.81350780,0.14381063,-0.00713165,-0.98957953
1314365328.86560273,0.14369281,-0.00719845,-0.98959616
1314365328.91349339,0.14363518,-0.00720279,-0.98960449
1314365328.96561766,0.14378844,-0.00719525,-0.98958229
1314365329.01362491,0.14402076,-0.00724507,-0.98954814
1314365329.06548834,0.14431034,-0.00742934,-0.98950459
1314365329.11424994,0.14446063,-0.00745044,-0.98948250
1314365329.16493392,0.14433201,-0.00713879,-0.98950357
1314365329.21748090,0.14437570,-0.00715347,-0.98949709
1314365329.26561451,0.14430846,-0.00719417,-0.98950660
1314365329.31345916,0.14425974,-0.00741975,-0.98951204
1314365329.36468744,0.14426615,-0.00754374,-0.98951017
1314365329.41659141,0.14428553,-0.00773646,-0.98950585
1314365329.46947527,0.14435201,-0.00769832,-0.98949645
1314365329.51360345,0.14436258,-0.00768605,-0.98949501
1314365329.56467772,0.14468484,-0.00758845,-0.98944869
1314365329.61277580,0.14486761,-0.00756252,-0.98942215
1314365329.66460586,0.14471032,-0.00768285,-0.98944424
1314365329.71347475,0.14484232,-0.00788474,-0.98942333
1314365329.76459312,0.14494718,-0.00793760,-0.98940756
1314365329.81291366,0.14509246,-0.00772214,-0.98938797
1314365329.86545968,0.14509689,-0.00746709,-0.98938927
1314365329.91305280,0.14498567,-0.00746020,-0.98940563
1314365329.96476769,0.14502248,-0.00777089,-0.98939784
1314365330.01349449,0.14486003,-0.00793017,-0.98942038
1314365330.06560445,0.14498806,-0.00829883,-0.98939860
1314365330.11383939,0.14497971,-0.00819264,-0.98940071
1314365330.16450715,0.14497123,-0.00841022,-0.98940013
1314365330.21660590,0.14511578,-0.00793912,-0.98938283
1314365330.26550198,0.14521185,-0.00801564,-0.98936812
1314365330.31363583,0.14532232,-0.00787925,-0.98935299
1314365330.36560416,0.14524807,-0.00753766,-0.98936656
1314365330.41675091,0.14508635,-0.00736021,-0.98939162
1314365330.46560502,0.14513997,-0.00720487,-0.98938490
1314365330.51345682,0.14513850,-0.00712613,-0.98938569
1314365330.56561589,0.14508033,-0.00703979,-0.98939484
1314365330.61361432,0.14494743,-0.00708836,-0.98941397
1314365330.67092204,0.14522035,-0.00699472,-0.98937461
1314365330.71758294,0.14518498,-0.00686651,-0.98938070
1314365330.76487875,0.14525976,-0.00706060,-0.98936836
1314365330.81349897,0.14492286,-0.00703757,-0.98941793
1314365330.86459541,0.14504844,-0.00698343,-0.98939991
1314365330.91273141,0.14491744,-0.00703711,-0.98941873
1314365330.96474147,0.14474460,-0.00701451,-0.98944419
1314365331.01361156,0.14458977,-0.00691267,-0.98946754
1314365331.06549025,0.14456340,-0.00677427,-0.98947235
1314365331.11367750,0.14457187,-0.00703714,-0.98946928
1314365331.16566062,0.14404396,-0.00688439,-0.98954734
1314365331.21275687,0.14388816,-0.00687513,-0.98957007
1314365331.26560259,0.14403688,-0.00695139,-0.98954790
1314365331.31348228,0.14420249,-0.00702342,-0.98952328
1314365331.36551380,0.14434299,-0.00738280,-0.98950017
1314365331.41281128,0.14458520,-0.00719254,-0.98946621
1314365331.46549177,0.14481679,-0.00696979,-0.98943394
1314365331.51365972,0.14458463,-0.00683944,-0.98946880
1314365331.56464934,0.14446972,-0.00687391,-0.98948535
1314365331.61271262,0.14463853,-0.00683180,-0.98946098
1314365331.66484833,0.14447067,-0.00666415,-0.98948664
1314365331.71346474,0.14447501,-0.00675057,-0.98948542
1314365331.76562762,0.14460840,-0.00668179,-0.98946640
1314365331.81767249,0.14451283,-0.00671667,-0.98948013
1314365331.86548281,0.14464629,-0.00668942,-0.98946081
1314365331.91322422,0.14466643,-0.00682746,-0.98945693
1314365331.96445608,0.14470798,-0.00682346,-0.98945088
1314365332.01345873,0.14462963,-0.00686746,-0.98946203
1314365332.06623149,0.14497693,-0.00697237,-0.98941047
1314365332.11347628,0.14470526,-0.00688394,-0.98945086
1314365332.16546512,0.14481650,-0.00679157,-0.98943522
1314365332.21976566,0.14496426,-0.00667903,-0.98941435
1314365332.26548338,0.14524800,-0.00662252,-0.98937311
1314365332.31272650,0.14516681,-0.00678932,-0.98938390
1314365332.36548328,0.14482004,-0.00706061,-0.98943282
1314365332.42474937,0.14488209,-0.00698978,-0.98942424
1314365332.46566582,0.14463967,-0.00722899,-0.98945799
1314365332.51345658,0.14454138,-0.00691562,-0.98947459
1314365332.56562185,0.14442733,-0.00708891,-0.98949002
1314365332.61651373,0.14481345,-0.00698151,-0.98943435
1314365332.66584897,0.14481089,-0.00702076,-0.98943444
1314365332.71649957,0.14500400,-0.00701585,-0.98940619
1314365332.76465750,0.14512798,-0.00688430,-0.98938894
1314365332.81268477,0.14515271,-0.00683500,-0.98938565
1314365332.86867642,0.14509953,-0.00688198,-0.98939313
1314365332.91344070,0.14513368,-0.00710544,-0.98938654
1314365332.96482086,0.14518305,-0.00706122,-0.98937961
1314365333.01348042,0.14522661,-0.00693630,-0.98937410
1314365333.06549001,0.14531724,-0.00704249,-0.98936005
1314365333.11279988,0.14519998,-0.00717421,-0.98937632
1314365333.16479802,0.14538487,-0.00741341,-0.98934740
1314365333.21351051,0.14535132,-0.00753199,-0.98935143
1314365333.26480293,0.14541538,-0.00763476,-0.98934123
1314365333.31265807,0.14545974,-0.00758426,-0.98933510
1314365333.36450315,0.14540386,-0.00743118,-0.98934448
1314365333.41663527,0.14552642,-0.00766601,-0.98932467
1314365333.46547818,0.14547412,-0.00763681,-0.98933258
1314365333.51361895,0.14562921,-0.00759962,-0.98931005
1314365333.56463075,0.14581107,-0.00776207,-0.98928200
1314365333.62473559,0.14560153,-0.00774533,-0.98931300
1314365333.66551232,0.14584581,-0.00790271,-0.98927577
1314365333.71265459,0.14568638,-0.00790365,-0.98929925
1314365333.76552200,0.14588061,-0.00780483,-0.98927141
1314365333.81367779,0.14583152,-0.00792232,-0.98927772
1314365333.86555171,0.14574104,-0.00806599,-0.98928989
1314365333.91649079,0.14598016,-0.00827653,-0.98925290
1314365333.96448827,0.14604404,-0.00818820,-0.98924420
1314365334.01751542,0.14615290,-0.00840883,-0.98922627
1314365334.06465793,0.14610669,-0.00836754,-0.98923345
1314365334.11349726,0.14593594,-0.00846891,-0.98925779
1314365334.16451883,0.14573078,-0.00884466,-0.98928475
1314365334.21267986,0.14565079,-0.00877606,-0.98929714
1314365334.26546502,0.14575793,-0.00904240,-0.98927896
1314365334.31764221,0.14603733,-0.00890620,-0.98923899
1314365334.36468124,0.14603183,-0.00896504,-0.98923927
1314365334.41263509,0.14601329,-0.00907716,-0.98924098
1314365334.46562743,0.14618478,-0.00896070,-0.98921672
1314365334.51261139,0.14620099,-0.00901178,-0.98921386
1314365334.56554508,0.14636654,-0.00898142,-0.98918965
1314365334.61268258,0.14640729,-0.00887054,-0.98918462
1314365334.66546059,0.14620169,-0.00883373,-0.98921536
1314365334.71320772,0.14595628,-0.00880123,-0.98925189
1314365334.76466322,0.14617273,-0.00897470,-0.98921837
1314365334.80546808,0.14600628,-0.00889541,-0.98924367
1314365334.86466527,0.14607381,-0.00887871,-0.98923385
1314365334.91346645,0.14618884,-0.00899831,-0.98921578
1314365334.96455979,0.14621412,-0.00867409,-0.98921494
1314365335.01356673,0.14632799,-0.00878403,-0.98919713
1314365335.06551003,0.14618170,-0.00873688,-0.98921918
1314365335.10565925,0.14652540,-0.00884801,-0.98916734
1314365335.16465974,0.14680737,-0.00865170,-0.98912726
1314365335.22547174,0.14691824,-0.00883111,-0.98910922
1314365335.26463485,0.14699420,-0.00862903,-0.98909971
1314365335.31346536,0.14708319,-0.00857137,-0.98908699
1314365335.36468387,0.14704232,-0.00849120,-0.98909375
1314365335.41265368,0.14678218,-0.00855923,-0.98913181
1314365335.46553993,0.14684307,-0.00850777,-0.98912321
1314365335.51662874,0.14692633,-0.00846804,-0.98911119
1314365335.56467533,0.14682155,-0.00862811,-0.98912537
1314365335.61657190,0.14711386,-0.00894093,-0.98907915
1314365335.66469836,0.14728248,-0.00905575,-0.98905301
1314365335.71345615,0.14735414,-0.00918243,-0.98904117
1314365335.76465940,0.14739070,-0.00913376,-0.98903618
1314365335.81263852,0.14733364,-0.00921904,-0.98904389
1314365335.85755658,0.14738403,-0.00926437,-0.98903595
1314365335.91263366,0.14735050,-0.00939053,-0.98903976
1314365335.96564889,0.14754652,-0.00911820,-0.98901309
1314365336.00547409,0.14751419,-0.00905321,-0.98901850
1314365336.06464863,0.14747023,-0.00901716,-0.98902539
1314365336.11344528,0.14744791,-0.00920127,-0.98902702
1314365336.16566563,0.14731901,-0.00922930,-0.98904597
1314365336.21263146,0.14728762,-0.00945819,-0.98904848
1314365336.25746274,0.14726238,-0.00948352,-0.98905200
1314365336.31514621,0.14728846,-0.00959383,-0.98904705
1314365336.35662556,0.14747628,-0.00961996,-0.98901881
1314365336.40555382,0.14727327,-0.00941500,-0.98905103
1314365336.46462750,0.14745477,-0.00932287,-0.98902486
1314365336.51350260,0.14723364,-0.00912973,-0.98905961
1314365336.56564188,0.14735455,-0.00922943,-0.98904067
1314365336.61364508,0.14700423,-0.00918116,-0.98909325
1314365336.65980172,0.14693457,-0.00920613,-0.98910337
1314365336.71408057,0.14708644,-0.00931700,-0.98907976
1314365336.76571465,0.14690250,-0.00912321,-0.98910890
1314365336.82553625,0.14687314,-0.00935651,-0.98911108
1314365336.86462164,0.14716027,-0.00941585,-0.98906784
1314365336.91352105,0.14709655,-0.00964768,-0.98907509
1314365336.95681214,0.14733102,-0.00983079,-0.98903838
1314365337.01409769,0.14736571,-0.00980394,-0.98903348
1314365337.05750322,0.14738123,-0.00987378,-0.98903047
1314365337.11607838,0.14725062,-0.00982098,-0.98905046
1314365337.15656209,0.14735120,-0.00979299,-0.98903575
1314365337.21254110,0.14721676,-0.00961046,-0.98905756
1314365337.26557994,0.14717315,-0.00978495,-0.98906234
1314365337.31346703,0.14706696,-0.00992859,-0.98907671
1314365337.37254691,0.14714593,-0.00989104,-0.98906534
1314365337.40456128,0.14726267,-0.00977350,-0.98904913
1314365337.46565652,0.14726287,-0.00981713,-0.98904867
1314365337.51252127,0.14748039,-0.00981805,-0.98901625
1314365337.55655098,0.14723623,-0.00993997,-0.98905141
1314365337.61354947,0.14700844,-0.00993671,-0.98908532
1314365337.65650487,0.14657794,-0.00989319,-0.98914965
1314365337.71348214,0.14655223,-0.00977538,-0.98915463
1314365337.76453805,0.14644176,-0.00973288,-0.98917141
1314365337.81263351,0.14635921,-0.00978850,-0.98918308
1314365337.86550283,0.14631781,-0.00964951,-0.98919057
1314365337.90563440,0.14636601,-0.00976034,-0.98918235
1314365337.96462107,0.14629954,-0.00958841,-0.98919387
1314365338.01358795,0.14621850,-0.00940408,-0.98920762
1314365338.06465054,0.14625025,-0.00954618,-0.98920156
1314365338.11351109,0.14637559,-0.00943256,-0.98918411
1314365338.15657687,0.14657823,-0.00922662,-0.98915605
1314365338.21250606,0.14651436,-0.00929055,-0.98916491
1314365338.26556706,0.14634258,-0.00909982,-0.98919212
1314365338.31350613,0.14625332,-0.00921785,-0.98920422
1314365338.36457777,0.14638237,-0.00935688,-0.98918383
1314365338.41253901,0.14623001,-0.00932721,-0.98920665
1314365338.46468806,0.14656250,-0.00928700,-0.98915782
1314365338.51349425,0.14652456,-0.00943453,-0.98916204
1314365338.56492996,0.14633792,-0.00958717,-0.98918820
1314365338.60463071,0.14642143,-0.00972919,-0.98917446
1314365338.66586566,0.14642477,-0.00969153,-0.98917433
1314365338.71257901,0.14658340,-0.00943752,-0.98915329
1314365338.76452637,0.14671170,-0.00972491,-0.98913149
1314365338.81250453,0.14639778,-0.00969670,-0.98917828
1314365338.86550689,0.14643128,-0.00980872,-0.98917221
1314365338.90557218,0.14643784,-0.00955964,-0.98917368
1314365338.96552444,0.14645976,-0.00942329,-0.98917174
1314365339.01393414,0.14631894,-0.00969005,-0.98919001
1314365339.06550860,0.14642221,-0.00968103,-0.98917481
1314365339.11351371,0.14641410,-0.00993499,-0.98917350
1314365339.16448498,0.14671599,-0.00993013,-0.98912881
1314365339.20950270,0.14688886,-0.00978431,-0.98910461
1314365339.26553392,0.14690800,-0.00955652,-0.98910400
1314365339.31349587,0.14668710,-0.00959589,-0.98913640
1314365339.36407542,0.14661373,-0.00964981,-0.98914675
1314365339.41347671,0.14677857,-0.00954069,-0.98912336
1314365339.46546841,0.14672205,-0.00991255,-0.98912809
1314365339.51291013,0.14658847,-0.00999828,-0.98914703
1314365339.56456804,0.14652844,-0.01001918,-0.98915572
1314365339.60557842,0.14656245,-0.01026205,-0.98914819
1314365339.66551852,0.14662515,-0.01001256,-0.98914145
1314365339.71346617,0.14661121,-0.01022220,-0.98914137
1314365339.75650001,0.14663399,-0.01021335,-0.98913809
1314365339.81254768,0.14668455,-0.01030392,-0.98912965
1314365339.86549401,0.14657056,-0.01041691,-0.98914537
1314365339.91357923,0.14691201,-0.01037604,-0.98909514
1314365339.96451426,0.14667659,-0.01038250,-0.98913001
1314365340.02553535,0.14676294,-0.01044386,-0.98911656
1314365340.06548572,0.14686280,-0.01008981,-0.98910541
1314365340.11346865,0.14705040,-0.01039297,-0.98907440
1314365340.15648746,0.14699773,-0.01011931,-0.98908507
1314365340.21250916,0.14712770,-0.01017248,-0.98906520
1314365340.26544762,0.14698930,-0.01005577,-0.98908697
1314365340.31257439,0.14705580,-0.01010503,-0.98907658
1314365340.36457300,0.14699998,-0.00996371,-0.98908631
1314365340.41374087,0.14695376,-0.01000857,-0.98909273
1314365340.46453428,0.14699014,-0.01005331,-0.98908687
1314365340.51345205,0.14684546,-0.01015468,-0.98910732
1314365340.56500411,0.14718662,-0.00999331,-0.98905826
1314365340.61351109,0.14727034,-0.00985790,-0.98904715
1314365340.66548371,0.14747376,-0.00981768,-0.98901724
1314365340.71342516,0.14743635,-0.01008246,-0.98902015
1314365340.76620221,0.14758184,-0.00998877,-0.98899941
1314365340.81743264,0.14776329,-0.00985774,-0.98897363
1314365340.86545396,0.14779595,-0.00957270,-0.98897155
1314365340.91346025,0.14771669,-0.00943255,-0.98898474
1314365340.96548915,0.14745452,-0.00967031,-0.98902156
1314365341.01250625,0.14719382,-0.00951051,-0.98906194
1314365341.06551719,0.14738646,-0.00971881,-0.98903123
1314365341.11293602,0.14730738,-0.00959063,-0.98904426
1314365341.16453624,0.14741140,-0.00957984,-0.98902887
1314365341.21341157,0.14742948,-0.00971238,-0.98902488
1314365341.26552320,0.14765093,-0.00973031,-0.98899167
1314365341.31345367,0.14734892,-0.00983910,-0.98903564
1314365341.36546755,0.14761919,-0.00964552,-0.98899724
1314365341.41350365,0.14743392,-0.00956930,-0.98902561
1314365341.46548414,0.14729465,-0.00980307,-0.98904408
1314365341.51544166,0.14741173,-0.00990483,-0.98902562
1314365341.56245613,0.14731693,-0.00995463,-0.98903924
1314365341.62550235,0.14764865,-0.01005197,-0.98898879
1314365341.66456485,0.14744378,-0.01023657,-0.98901746
1314365341.71346617,0.14734558,-0.01025065,-0.98903195
1314365341.76550937,0.14717242,-0.01016683,-0.98905860
1314365341.81353498,0.14707496,-0.01041611,-0.98907050
1314365341.86551571,0.14705942,-0.01042133,-0.98907276
1314365341.91287994,0.14711562,-0.01038667,-0.98906477
1314365341.96556044,0.14711466,-0.01013986,-0.98906747
1314365342.01747704,0.14701758,-0.01043900,-0.98907879
1314365342.06662774,0.14694930,-0.01054603,-0.98908780
1314365342.11346722,0.14711773,-0.01074697,-0.98906060
1314365342.16464376,0.14708029,-0.01079464,-0.98906565
1314365342.21749163,0.14707802,-0.01075212,-0.98906645
1314365342.26548815,0.14711773,-0.01101090,-0.98905770
1314365342.31346703,0.14717430,-0.01105310,-0.98904881
1314365342.36451578,0.14701339,-0.01088602,-0.98907460
1314365342.41345882,0.14695888,-0.01102125,-0.98908120
1314365342.46513128,0.14700318,-0.01105547,-0.98907423
1314365342.51352501,0.14696550,-0.01113069,-0.98907899
1314365342.56527805,0.14694190,-0.01106519,-0.98908323
1314365342.61254120,0.14687405,-0.01108964,-0.98909304
1314365342.66552472,0.14695959,-0.01089198,-0.98908253
1314365342.71355915,0.14677189,-0.01079154,-0.98911150
1314365342.76539969,0.14681838,-0.01108353,-0.98910137
1314365342.81345677,0.14683768,-0.01092908,-0.98910022
1314365342.86543584,0.14705907,-0.01109079,-0.98906553
1314365342.91350532,0.14711222,-0.01098889,-0.98905876
1314365342.96457148,0.14705070,-0.01091954,-0.98906868
1314365343.01654053,0.14703468,-0.01093064,-0.98907094
1314365343.06332111,0.14720083,-0.01081627,-0.98904748
1314365343.11336327,0.14731092,-0.01094181,-0.98902971
1314365343.16466928,0.14731452,-0.01115410,-0.98902680
1314365343.21736169,0.14744675,-0.01127547,-0.98900572
1314365343.26698136,0.14731026,-0.01162948,-0.98902196
1314365343.31345320,0.14743893,-0.01155095,-0.98900371
1314365343.36455560,0.14737796,-0.01161905,-0.98901200
